TVARMINN Weather Reports


Display with metric or nautical units.
time (UTC)temp
F
wind
direction
speed
MPH
gust
MPH
rain 1hr
in
rain 24hr
in
rain mn
in
humidity
%
barometer
mb
20260506090724 50 0.0 0.0 0.00 0.00 0.00 40 1014.0
20260506084726 50 0.0 0.0 0.00 0.00 0.00 39 1013.9
20260506082725 47 0.0 0.0 0.00 0.00 0.00 68 1013.9
20260506080724 46 0.0 0.0 0.00 0.00 0.00 72 1013.9
20260506072726 46 0.0 0.0 0.00 0.00 0.00 72 1013.6
20260506070725 47 0.0 0.0 0.00 0.00 0.00 68 1013.5
20260506060724 46 0.0 0.0 0.00 0.00 0.00 55 1013.2
20260506050724 44 0.0 0.0 0.00 0.00 0.00 64 1012.6
20260506044724 42 0.0 0.0 0.00 0.00 0.00 71 1012.4
20260506042724 41 0.0 0.0 0.00 0.00 0.00 77 1012.2
20260506040724 40 0.0 0.0 0.00 0.00 0.00 82 1012.1
20260506034724 38 0.0 0.0 0.00 0.00 0.00 88 1011.8
20260506032723 37 0.0 0.0 0.00 0.00 0.00 93 1011.6
20260506030724 37 0.0 0.0 0.00 0.00 0.00 92 1011.6
20260506024724 37 0.0 0.0 0.00 0.00 0.00 96 1011.4
20260506022723 36 0.0 0.0 0.00 0.00 0.00 98 1011.2
20260506020723 34 0.0 0.0 0.00 0.00 0.00 97 1011.0
20260506014723 35 0.0 0.0 0.00 0.00 0.00 97 1010.8
20260506012723 34 0.0 0.0 0.00 0.00 0.00 97 1010.6
20260506010724 34 0.0 0.0 0.00 0.00 0.00 96 1010.4
20260506004723 35 0.0 0.0 0.00 0.00 0.00 95 1010.3
20260506002723 34 0.0 0.0 0.00 0.00 0.00 95 1010.2
20260506000723 35 0.0 0.0 0.00 0.00 0.00 94 1010.0
20260505234723 35 0.0 0.0 0.00 0.00 0.00 94 1010.0
20260505232723 35 0.0 0.0 0.00 0.00 0.00 92 1009.9
20260505230723 35 0.0 0.0 0.00 0.00 0.00 90 1009.8
20260505224723 35 0.0 0.0 0.00 0.00 0.00 89 1009.8
20260505222722 35 0.0 0.0 0.00 0.00 0.00 87 1009.7
20260505220723 36 0.0 0.0 0.00 0.00 0.00 81 1009.6
20260505214723 37 0.0 0.0 0.00 0.00 0.00 77 1009.6
20260505212723 39 0.0 0.0 0.00 0.00 0.00 74 1009.4
20260505210722 38 0.0 0.0 0.00 0.00 0.00 74 1009.4
20260505204723 39 0.0 0.0 0.00 0.00 0.00 72 1009.2
20260505202723 38 0.0 0.0 0.00 0.00 0.00 74 1009.0
20260505200722 38 0.0 0.0 0.00 0.00 0.00 74 1008.8
20260505194722 38 0.0 0.0 0.00 0.00 0.00 73 1008.7
20260505192722 40 0.0 0.0 0.00 0.00 0.00 69 1008.7
20260505190722 40 0.0 0.0 0.00 0.00 0.00 67 1008.6
20260505184722 41 0.0 0.0 0.00 0.00 0.00 63 1008.5
20260505182721 42 0.0 0.0 0.00 0.00 0.00 61 1008.3
20260505180722 43 0.0 0.0 0.00 0.00 0.00 58 1008.1
20260505174722 43 0.0 0.0 0.00 0.00 0.00 55 1007.9
20260505172721 44 0.0 0.0 0.00 0.00 0.00 55 1007.8
20260505170721 45 0.0 0.0 0.00 0.00 0.00 59 1007.7
20260505164721 45 0.0 0.0 0.00 0.00 0.00 69 1007.7
20260505162721 45 0.0 0.0 0.00 0.00 0.00 67 1007.8
20260505160721 45 0.0 0.0 0.00 0.00 0.00 67 1007.6
20260505152721 46 0.0 0.0 0.00 0.00 0.00 69 1007.5
20260505150721 47 0.0 0.0 0.00 0.00 0.00 55 1007.4
20260505124720 48 0.0 0.0 0.00 0.00 0.00 51 1006.6
20260505122720 50 0.0 0.0 0.00 0.00 0.00 51 1006.4
20260505120720 49 0.0 0.0 0.00 0.00 0.00 53 1006.2
20260505114720 48 0.0 0.0 0.00 0.00 0.00 55 1006.1
20260505112721 48 0.0 0.0 0.00 0.00 0.00 56 1005.9
20260505110720 49 0.0 0.0 0.00 0.00 0.00 55 1005.7
20260505100720 49 0.0 0.0 0.00 0.02 0.00 61 1005.0
20260505094720 49 0.0 0.0 0.00 0.07 0.00 60 1004.7
20260505092719 49 0.0 0.0 0.00 0.07 0.00 61 1004.4